TimeCST,TemperatureF,Dew PointF,Humidity,Sea Level PressureIn,VisibilityMPH,Wind Direction,Wind SpeedMPH,Gust SpeedMPH,PrecipitationIn,Events,Conditions,WindDirDegrees,DateUTC
12:15 AM,21.2,17.6,86,29.60,10.0,West,27.6,34.5,N/A,,Overcast,270,2013-01-12 06:15:00
12:35 AM,21.2,17.6,86,29.62,10.0,West,28.8,-,N/A,,Overcast,280,2013-01-12 06:35:00
12:55 AM,21.2,15.8,80,29.64,10.0,West,24.2,34.5,N/A,,Overcast,280,2013-01-12 06:55:00
1:15 AM,19.4,12.2,74,29.66,10.0,West,29.9,38.0,N/A,,Overcast,280,2013-01-12 07:15:00
1:35 AM,17.6,10.4,73,29.68,7.0,West,28.8,41.4,N/A,Snow,Light Snow,280,2013-01-12 07:35:00
1:55 AM,17.6,10.4,73,29.69,10.0,West,35.7,43.7,N/A,,Scattered Clouds,280,2013-01-12 07:55:00
2:15 AM,17.6,10.4,73,29.71,10.0,WNW,32.2,42.6,N/A,,Scattered Clouds,290,2013-01-12 08:15:00
2:35 AM,15.8,10.4,79,29.73,10.0,WNW,27.6,33.4,N/A,,Scattered Clouds,290,2013-01-12 08:35:00
2:55 AM,15.8,8.6,73,29.75,10.0,West,26.5,34.5,N/A,,Mostly Cloudy,280,2013-01-12 08:55:00
3:35 AM,15.8,8.6,73,29.77,10.0,West,31.1,-,N/A,Snow,Light Snow,280,2013-01-12 09:35:00
3:55 AM,15.8,8.6,73,29.78,10.0,WNW,26.5,-,N/A,,Overcast,290,2013-01-12 09:55:00
4:15 AM,15.8,8.6,73,29.78,5.0,WNW,27.6,-,N/A,Snow,Light Snow,290,2013-01-12 10:15:00
4:35 AM,15.8,8.6,73,29.79,7.0,WNW,24.2,34.5,N/A,,Overcast,290,2013-01-12 10:35:00
4:55 AM,15.8,6.8,68,29.79,10.0,WNW,28.8,40.3,N/A,,Mostly Cloudy,290,2013-01-12 10:55:00
5:15 AM,14.0,6.8,73,29.80,10.0,WNW,28.8,33.4,N/A,,Clear,290,2013-01-12 11:15:00
5:35 AM,14.0,6.8,73,29.81,10.0,WNW,31.1,38.0,N/A,,Clear,290,2013-01-12 11:35:00
5:55 AM,14.0,6.8,73,29.84,10.0,WNW,27.6,33.4,N/A,,Clear,290,2013-01-12 11:55:00
6:15 AM,12.2,6.8,79,29.84,10.0,WNW,23.0,32.2,N/A,,Scattered Clouds,290,2013-01-12 12:15:00
6:35 AM,12.2,6.8,79,29.87,10.0,West,19.6,27.6,N/A,,Scattered Clouds,280,2013-01-12 12:35:00
6:55 AM,12.2,3.2,67,29.89,10.0,WNW,20.7,29.9,N/A,,Clear,290,2013-01-12 12:55:00
7:15 AM,12.2,5.0,73,29.89,10.0,WNW,20.7,24.2,N/A,,Clear,290,2013-01-12 13:15:00
7:35 AM,12.2,6.8,79,29.90,10.0,West,17.3,-,N/A,,Clear,280,2013-01-12 13:35:00
7:55 AM,12.2,5.0,73,29.92,10.0,WNW,18.4,25.3,N/A,,Mostly Cloudy,290,2013-01-12 13:55:00
8:15 AM,12.2,5.0,73,29.93,10.0,West,16.1,-,N/A,,Scattered Clouds,280,2013-01-12 14:15:00
8:35 AM,12.2,6.8,79,29.94,10.0,West,17.3,-,N/A,,Clear,280,2013-01-12 14:35:00
8:55 AM,12.2,6.8,79,29.93,10.0,West,20.7,24.2,N/A,,Clear,280,2013-01-12 14:55:00
9:15 AM,14.0,5.0,67,29.93,10.0,WNW,24.2,32.2,N/A,,Clear,290,2013-01-12 15:15:00
9:35 AM,12.2,5.0,73,29.96,10.0,West,21.9,-,N/A,,Mostly Cloudy,280,2013-01-12 15:35:00
9:55 AM,14.0,6.8,73,29.96,10.0,WNW,18.4,-,N/A,,Mostly Cloudy,300,2013-01-12 15:55:00
10:15 AM,14.0,6.8,73,29.97,10.0,WNW,18.4,-,N/A,,Mostly Cloudy,300,2013-01-12 16:15:00
10:35 AM,15.8,6.8,68,29.98,10.0,West,19.6,26.5,N/A,,Mostly Cloudy,280,2013-01-12 16:35:00
10:55 AM,14.0,5.0,67,29.99,10.0,WNW,18.4,-,N/A,,Mostly Cloudy,290,2013-01-12 16:55:00
11:15 AM,14.0,5.0,67,30.00,10.0,WNW,20.7,-,N/A,,Mostly Cloudy,300,2013-01-12 17:15:00
11:35 AM,14.0,3.2,62,30.00,10.0,WNW,21.9,27.6,N/A,,Scattered Clouds,290,2013-01-12 17:35:00
11:55 AM,15.8,5.0,62,30.00,10.0,NW,20.7,26.5,N/A,,Mostly Cloudy,310,2013-01-12 17:55:00
12:15 PM,15.8,5.0,62,30.00,10.0,West,16.1,21.9,N/A,,Overcast,280,2013-01-12 18:15:00
12:55 PM,15.8,5.0,62,30.00,10.0,WNW,19.6,-,N/A,,Overcast,290,2013-01-12 18:55:00
1:15 PM,15.8,5.0,62,30.00,10.0,WNW,18.4,24.2,N/A,,Overcast,300,2013-01-12 19:15:00
1:35 PM,15.8,5.0,62,29.99,10.0,WNW,19.6,-,N/A,,Mostly Cloudy,300,2013-01-12 19:35:00
1:55 PM,15.8,3.2,58,30.00,10.0,WNW,18.4,-,N/A,,Overcast,300,2013-01-12 19:55:00
2:15 PM,14.0,6.8,73,29.99,7.0,WNW,17.3,-,N/A,,Overcast,300,2013-01-12 20:15:00
2:35 PM,15.8,5.0,62,30.00,10.0,WNW,17.3,25.3,N/A,,Overcast,300,2013-01-12 20:35:00
2:55 PM,14.0,3.2,62,30.00,10.0,WNW,21.9,-,N/A,,Overcast,300,2013-01-12 20:55:00
3:15 PM,15.8,5.0,62,30.02,10.0,WNW,21.9,26.5,N/A,,Mostly Cloudy,290,2013-01-12 21:15:00
3:35 PM,12.2,1.4,62,30.01,10.0,WNW,17.3,-,N/A,,Mostly Cloudy,290,2013-01-12 21:35:00
3:55 PM,12.2,5.0,73,30.02,7.0,WNW,16.1,-,N/A,,Overcast,290,2013-01-12 21:55:00
4:15 PM,12.2,6.8,79,30.03,7.0,West,19.6,24.2,N/A,,Overcast,280,2013-01-12 22:15:00
4:35 PM,12.2,3.2,67,30.02,7.0,WNW,20.7,-,N/A,Snow,Light Snow,300,2013-01-12 22:35:00
4:55 PM,10.4,1.4,67,30.03,10.0,NW,19.6,-,N/A,,Clear,310,2013-01-12 22:55:00
5:15 PM,10.4,1.4,67,30.03,10.0,NW,20.7,25.3,N/A,,Clear,310,2013-01-12 23:15:00
5:35 PM,10.4,1.4,67,30.03,10.0,NW,17.3,21.9,N/A,,Clear,310,2013-01-12 23:35:00
5:55 PM,10.4,1.4,67,30.03,10.0,NW,15.0,18.4,N/A,,Clear,320,2013-01-12 23:55:00
6:15 PM,10.4,1.4,67,30.05,10.0,NW,9.2,-,N/A,,Clear,320,2013-01-13 00:15:00
6:35 PM,10.4,3.2,73,30.06,10.0,NW,9.2,-,N/A,,Scattered Clouds,310,2013-01-13 00:35:00
6:55 PM,10.4,3.2,73,30.05,7.0,NW,11.5,-,N/A,Snow,Light Snow,320,2013-01-13 00:55:00
7:15 PM,10.4,1.4,67,30.06,10.0,NW,15.0,19.6,N/A,,Scattered Clouds,320,2013-01-13 01:15:00
7:55 PM,8.6,3.2,79,30.07,10.0,WNW,12.7,-,N/A,,Scattered Clouds,300,2013-01-13 01:55:00
8:15 PM,8.6,3.2,79,30.07,7.0,WNW,12.7,-,N/A,,Mostly Cloudy,300,2013-01-13 02:15:00
8:35 PM,8.6,3.2,79,30.08,5.0,WNW,13.8,-,N/A,Snow,Light Snow,300,2013-01-13 02:35:00
8:55 PM,8.6,1.4,73,30.08,10.0,NW,15.0,20.7,N/A,,Mostly Cloudy,310,2013-01-13 02:55:00
9:15 PM,6.8,1.4,79,30.07,10.0,NW,12.7,18.4,N/A,,Scattered Clouds,320,2013-01-13 03:15:00
9:35 PM,6.8,-0.4,72,30.10,10.0,NW,12.7,-,N/A,,Clear,310,2013-01-13 03:35:00
9:55 PM,6.8,-0.4,72,30.08,10.0,NW,9.2,-,N/A,,Clear,320,2013-01-13 03:55:00
10:35 PM,6.8,-0.4,72,30.08,10.0,NW,10.4,-,N/A,,Clear,320,2013-01-13 04:35:00
10:55 PM,5.0,-2.2,72,30.07,10.0,NNW,11.5,19.6,N/A,,Clear,330,2013-01-13 04:55:00
11:15 PM,6.8,-0.4,72,30.07,10.0,NNW,10.4,-,N/A,,Clear,330,2013-01-13 05:15:00
11:35 PM,6.8,-0.4,72,30.06,10.0,NNW,9.2,-,N/A,,Mostly Cloudy,330,2013-01-13 05:35:00
11:55 PM,6.8,-0.4,72,30.06,10.0,NNW,9.2,-,N/A,,Scattered Clouds,330,2013-01-13 05:55:00